Location: Bridalveil Fall
(37.7166°N, 119.6468°W)
Time: 21:54:38
(UTC+00:00)

Daily predictions for brighter satellites

Satellite Brightness Start Highest point End
(mag) Time Altitude Azimuth Time Altitude Azimuth Time Altitude Azimuth
Cosmos 1898 Rocket 4.5 12:14:12 45° E 12:14:12 45° E 12:18:38 10° SE
Tiangong 1.3 12:29:06 12° ESE 12:29:06 12° ESE 12:29:22 10° ESE
Cosmos 1937 Rocket 4.2 12:31:53 45° NE 12:32:44 50° ENE 12:37:42 10° SE
Cosmos 2333 Rocket 4.1 12:29:53 14° N 12:33:43 26° ENE 12:38:27 10° ESE
USA 59 Rocket 0.7 12:36:56 55° ESE 12:36:56 55° ESE 12:41:25 10° SE
NOSS 2-1 (D) 4.2 12:37:28 54° ESE 12:37:28 54° ESE 12:41:54 10° SE
Cosmos 1892 Rocket 4.3 12:36:19 10° S 12:40:32 52° E 12:44:48 10° NNE
Aureole 1 Rocket 4.2 12:42:03 55° NW 12:43:42 70° WSW 12:51:01 10° S
Cosmos 2180 Rocket 4.4 12:46:12 65° W 12:46:19 65° W 12:52:35 10° S
COSMOS 2455 2.7 12:47:27 68° WNW 12:48:06 76° WSW 12:54:05 10° SSE
NOSS 2-1 (E) 3.7 12:50:25 68° ENE 12:50:25 68° ENE 12:55:34 10° SE
Cosmos 2026 Rocket 4.3 12:45:45 10° S 12:51:42 65° E 12:57:43 10° NNE
Cosmos 2322 Rocket 4.0 12:47:04 10° N 12:51:52 27° ENE 12:56:36 10° ESE
CZ-3 Stage 3 4.4 12:47:03 34° WSW 12:52:40 59° S 13:31:12 10° ESE
ATLAS 2AS CENTAUR R/B 4.4 12:49:31 10° S 12:55:44 33° ESE 13:01:47 10° NE
NOSS 2-1 (C) 3.4 13:08:08 65° W 13:08:22 67° WSW 13:13:42 10° SSE
Meteor 2-3 Rocket 3.7 13:08:07 10° SSW 13:13:47 62° W 13:19:25 10° N
Cosmos 2237 4.2 13:12:43 39° NW 13:14:41 60° WSW 13:20:14 10° S
COSMOS 2406 4.0 13:16:23 32° NW 13:16:23 32° NW 13:20:28 10° N
Cosmos 2082 Rocket 4.2 13:20:37 11° NNW 13:20:37 11° NNW 13:21:03 10° N
NOAA 12 3.9 13:14:26 10° N 13:19:43 76° WNW 13:24:55 10° SSW
Cosmos 1092 Rocket 3.9 13:14:10 10° S 13:20:27 84° W 13:26:44 10° N
SL-16 R/B 2.2 13:16:46 19° NNW 13:20:57 83° ENE 13:26:37 10° SSE
SKYMED 2 3.4 13:16:57 10° SSE 13:21:17 87° WSW 13:24:23 19° NNW
Nadezhda 4 Rocket 4.4 13:15:55 10° SW 13:21:43 38° WNW 13:27:33 10° N
Cosmos 2058 Rocket 3.3 13:18:59 10° N 13:23:24 68° E 13:27:44 10° SSE
CZ-3 R/B 4.0 13:14:56 21° W 13:23:38 29° SW 13:30:55 10° SSE
Cosmos 1743 4.3 13:30:55 10° SSE 13:33:47 30° E 13:36:40 10° NNE
Meteor 2-20 4.3 13:29:54 10° NNW 13:35:58 69° W 13:41:57 10° S
BREEZE-M DEB (TANK) 2.4 13:41:51 19° SW 13:43:43 80° SE 13:46:05 10° NE
Cosmos 2278 3.6 13:40:34 13° NNW 13:45:39 71° WSW 13:51:14 10° SSE
Cosmos 1484 Rocket 2.3 13:45:01 10° NNE 13:48:25 89° WNW 13:51:46 10° SSW
OAO 2 Rocket 3.8 13:44:17 15° WSW 13:48:31 57° S 13:53:31 10° E
Cosmos 1758 Rocket 3.6 13:45:47 10° S 13:50:12 83° E 13:54:36 10° N
ISS -0.8 13:54:32 10° S 13:57:02 19° SE 13:59:32 10° E
[s.n.66875] 3.7 13:55:04 10° SSW 13:57:11 23° SSE 13:59:19 10° E
Meteor 2-20 Rocket 4.2 13:51:42 10° NNW 13:57:21 65° W 14:02:59 10° S
Helios 1A Rocket 2.6 13:54:07 10° S 13:57:22 49° W 14:00:22 12° NNW
[s.n.66873] 3.7 13:55:46 10° SSW 13:57:53 23° SSE 14:00:01 10° E
[s.n.66876] 3.7 13:56:13 10° SSW 13:58:22 24° SSE 14:00:30 10° E
[s.n.66874] 3.7 13:57:01 10° SSW 13:59:09 24° SSE 14:01:19 10° E
[s.n.66872] 3.6 13:57:48 10° SSW 13:59:58 25° SSE 14:02:08 10° E
[s.n.66871] 3.6 13:58:20 10° SSW 14:00:31 25° SSE 14:02:42 10° E
[s.n.66870] 3.6 13:59:09 10° SSW 14:01:20 25° SSE 14:03:32 10° E
[s.n.66869] 3.6 13:59:56 10° SSW 14:02:08 26° SSE 14:04:21 10° E
[s.n.66868] 3.5 14:00:33 10° SSW 14:02:45 26° SSE 14:04:58 10° E
Tiangong 0.2 14:01:27 11° WSW 14:02:45 13° SW 14:04:24 10° S
IRS-1D 4.4 13:59:08 10° NNW 14:03:12 25° WNW 14:07:19 10° WSW
[s.n.66867] 3.5 14:01:20 10° SSW 14:03:33 27° SSE 14:05:48 10° E
[s.n.66866] 3.5 14:02:04 10° SSW 14:04:18 27° SSE 14:06:33 10° E
[s.n.66865] 3.4 14:02:36 10° SSW 14:04:51 27° SSE 14:07:07 10° E
[s.n.66860] 3.4 14:03:15 10° SSW 14:05:31 28° SSE 14:07:48 10° E
[s.n.66864] 3.4 14:03:53 10° SSW 14:06:09 28° SSE 14:08:25 10° E
[s.n.66863] 3.4 14:04:28 10° SSW 14:06:45 28° SSE 14:09:03 10° E
Cosmos 405 Rocket 2.7 14:03:57 10° SSW 14:06:59 38° WNW 14:10:05 10° N
BREEZE M DEB (TANK) 2.6 14:06:06 20° WNW 14:07:09 29° NNW 14:10:18 10° NE
[s.n.66861] 3.3 14:05:18 10° SSW 14:07:35 29° SSE 14:09:53 10° E
[s.n.66862] 3.3 14:05:56 10° SSW 14:08:14 29° SSE 14:10:33 10° E
[s.n.66859] 3.3 14:06:38 10° SSW 14:08:56 30° SSE 14:11:16 10° E
[s.n.66858] 3.3 14:07:17 10° SW 14:09:37 30° SSE 14:11:57 10° E
[s.n.66857] 3.2 14:07:53 10° SW 14:10:11 31° SSE 14:12:32 10° E
Cosmos 2344 4.5 14:01:57 10° SSW 14:10:13 54° ESE 14:17:13 10° NE
[s.n.66856] 3.2 14:08:25 10° SW 14:10:46 31° SSE 14:13:07 10° E
COSMO-SKYMED 1 3.2 14:07:07 10° SSW 14:10:49 33° W 14:14:33 10° NNW
[s.n.66855] 3.2 14:09:06 10° SW 14:11:27 32° SSE 14:13:48 10° E
Cosmos 1707 4.3 14:08:47 10° NNE 14:11:32 28° ENE 14:14:16 10° SE
Cosmos 2360 Rocket 2.2 14:06:05 10° NNW 14:11:43 76° WSW 14:17:17 10° SSE
[s.n.66854] 3.2 14:09:40 10° SW 14:12:02 32° SSE 14:14:24 10° E
Cosmos 1626 Rocket 3.9 14:08:18 10° SSW 14:12:31 44° W 14:16:44 10° N
Cosmos-2242 3.7 14:08:55 10° NNW 14:12:40 32° W 14:16:23 10° SSW
[s.n.66853] 3.1 14:10:24 10° SW 14:12:46 33° SSE 14:15:08 10° E
OAO 3 Rocket 3.8 14:08:54 10° WSW 14:13:26 53° S 14:18:03 10° E
[s.n.66852] 3.1 14:11:09 10° SW 14:13:32 33° SSE 14:15:55 10° E
[s.n.66851] 3.1 14:11:41 10° SW 14:14:03 34° SSE 14:16:26 10° E
Okean 1 3.8 14:11:20 10° NNW 14:14:28 30° W 14:17:36 10° SSW
[s.n.66850] 3.0 14:12:13 10° SW 14:14:37 34° SSE 14:17:00 10° E
Cosmos 1833 4.4 14:09:12 10° SW 14:14:38 49° WNW 14:20:09 10° NNE
[s.n.66849] 3.0 14:12:56 10° SW 14:15:19 34° SSE 14:17:43 10° E
[s.n.66848] 3.0 14:13:27 10° SW 14:15:51 35° SSE 14:18:16 10° E
Cosmos 2333 Rocket 2.6 14:12:43 10° NW 14:18:09 43° WSW 14:23:29 10° S
BREEZE-M DEB (TANK) 4.4 14:15:21 11° WNW 14:19:36 25° SW 14:22:20 10° S
SL-4 R/B 2.9 14:16:50 10° NNW 14:19:42 28° NNE 14:22:29 10° E
ATLAS 3B R/B 4.4 14:14:58 10° NNW 14:21:42 30° NE 14:28:07 10° ESE
USA 59 Rocket 2.3 14:23:41 10° W 14:24:57 11° WSW 14:26:17 10° SW
MOS 1 Rocket 4.3 14:19:48 10° NNE 14:25:05 59° E 14:30:11 10° S
IGS 5A 3.9 14:22:40 10° N 14:26:22 36° WNW 14:30:02 10° SW
Cosmos 2219 Rocket 2.3 14:22:37 10° NNW 14:28:18 86° ENE 14:33:55 10° SSE
ARIANE 5 R/B 3.0 14:24:42 10° NNE 14:29:56 71° ESE 14:35:07 10° S
SAR-Lupe-4 3.6 14:29:53 10° NNE 14:33:26 83° ESE 14:36:59 10° SSW
ARIANE 6 FM1 Upper Stage 4.3 14:30:14 10° S 14:34:03 39° ESE 14:37:48 10° NE
Cosmos 2322 Rocket 2.7 14:30:42 10° NW 14:35:58 40° WSW 14:41:11 10° S
